Tracking 19193 objects as of 24-Jun-2018
HD Live streaming from Space Station
objects crossing your sky now

FENGYUN 1C DEB


10-day predictions


NORAD ID: 37471
Int'l Code: 1999-025EJR
Launch date: May 10, 1999
Source: People's Republic of China (PRC)
Launch site: Taiyaun Space Center, China (TSC)

Note: This is SATELLITE DEBRIS
aabbcc
Your satellite tracking list
Your tracking list is empty




NASA's NSSDC Master Catalog

Two Line Element Set (TLE):
1 37471U 99025EJR 18173.87610593 +.00000801 +00000-0 +10905-3 0  9993
2 37471 098.7185 050.4403 0193120 251.3205 106.6950 14.70170158504158
Source of the keplerian elements: AFSPC